Time,TemperatureF,DewpointF,PressureIn,WindDirection,WindDirectionDegrees,WindSpeedMPH,WindSpeedGustMPH,Humidity,HourlyPrecipIn,Conditions,Clouds,dailyrainin,SoftwareType,DateUTC
2013-03-17 00:02:00,62.0,61.0,29.98,WSW,244,0.0,0.0,95,0.00,,,0.00,,2013-03-17 05:02:00,
2013-03-17 00:12:00,62.0,61.0,29.98,WSW,244,0.0,0.0,95,0.00,,,0.00,,2013-03-17 05:12:00,
2013-03-17 00:22:00,62.0,61.0,29.98,WSW,244,0.0,0.0,95,0.00,,,0.00,,2013-03-17 05:22:00,
2013-03-17 00:32:00,62.0,61.0,29.98,WSW,244,0.0,0.0,95,0.00,,,0.00,,2013-03-17 05:32:00,
2013-03-17 00:42:00,62.0,61.0,29.98,WSW,244,0.0,0.0,95,0.00,,,0.00,,2013-03-17 05:42:00,
2013-03-17 00:52:00,62.0,61.0,29.98,WSW,244,0.0,0.0,95,0.00,,,0.00,,2013-03-17 05:52:00,
2013-03-17 01:02:00,62.0,61.0,29.98,WSW,244,0.0,0.0,95,0.00,,,0.00,,2013-03-17 06:02:00,
2013-03-17 01:12:00,62.0,61.0,29.98,WSW,244,0.0,0.0,95,0.00,,,0.00,,2013-03-17 06:12:00,
2013-03-17 01:22:00,62.0,61.0,29.98,WSW,244,0.0,0.0,95,0.00,,,0.00,,2013-03-17 06:22:00,
2013-03-17 01:32:00,62.0,61.0,29.97,WSW,244,0.0,0.0,95,0.00,,,0.00,,2013-03-17 06:32:00,
2013-03-17 01:42:00,62.0,61.0,29.97,WSW,244,0.0,0.0,95,0.00,,,0.00,,2013-03-17 06:42:00,
2013-03-17 01:52:00,62.0,61.0,29.97,WSW,244,0.0,0.0,96,0.00,,,0.00,,2013-03-17 06:52:00,
2013-03-17 02:02:00,62.0,61.0,29.96,WSW,244,0.0,0.0,96,0.00,,,0.00,,2013-03-17 07:02:00,
2013-03-17 02:12:00,62.0,61.0,29.96,WSW,244,0.0,0.0,96,0.00,,,0.00,,2013-03-17 07:12:00,
2013-03-17 02:22:00,62.0,61.0,29.96,WSW,244,0.0,0.0,96,0.00,,,0.00,,2013-03-17 07:22:00,
2013-03-17 02:32:00,62.0,61.0,29.95,WSW,244,0.0,0.0,96,0.00,,,0.00,,2013-03-17 07:32:00,
2013-03-17 02:42:00,62.0,61.0,29.95,WSW,244,0.0,0.0,96,0.00,,,0.00,,2013-03-17 07:42:00,
2013-03-17 02:52:00,62.0,61.0,29.95,WSW,244,0.0,0.0,96,0.00,,,0.00,,2013-03-17 07:52:00,
2013-03-17 03:02:00,61.0,60.0,29.94,WSW,244,0.0,0.0,96,0.00,,,0.00,,2013-03-17 08:02:00,
2013-03-17 03:12:00,61.0,60.0,29.94,WSW,244,0.0,0.0,96,0.00,,,0.00,,2013-03-17 08:12:00,
2013-03-17 03:22:00,61.0,60.0,29.94,WSW,244,0.0,0.0,96,0.00,,,0.00,,2013-03-17 08:22:00,
2013-03-17 03:32:00,62.0,61.0,29.93,WSW,244,0.0,0.0,96,0.00,,,0.00,,2013-03-17 08:32:00,
2013-03-17 03:40:00,62.0,61.0,29.92,WSW,244,0.0,0.0,96,0.00,,,0.00,,2013-03-17 08:40:00,
2013-03-17 03:42:00,62.0,61.0,29.93,WSW,244,0.0,0.0,96,0.00,,,0.00,,2013-03-17 08:42:00,
2013-03-17 03:52:00,62.0,61.0,29.93,WSW,244,0.0,0.0,96,0.00,,,0.00,,2013-03-17 08:52:00,
2013-03-17 04:02:00,62.0,61.0,29.92,WSW,244,0.0,0.0,96,0.00,,,0.00,,2013-03-17 09:02:00,
2013-03-17 04:12:00,62.0,61.0,29.92,WSW,244,0.0,0.0,96,0.00,,,0.00,,2013-03-17 09:12:00,
2013-03-17 04:22:00,62.0,61.0,29.92,WSW,244,0.0,0.0,96,0.00,,,0.00,,2013-03-17 09:22:00,
2013-03-17 04:32:00,62.0,61.0,29.92,WSW,244,0.0,0.0,96,0.00,,,0.00,,2013-03-17 09:32:00,
2013-03-17 04:53:00,62.0,61.0,29.92,WSW,244,0.0,0.0,96,0.00,,,0.00,,2013-03-17 09:53:00,
2013-03-17 05:03:00,62.0,61.0,29.92,WSW,244,0.0,0.0,97,0.00,,,0.00,,2013-03-17 10:03:00,
2013-03-17 05:13:00,62.0,61.0,29.92,WSW,244,0.0,0.0,97,0.00,,,0.00,,2013-03-17 10:13:00,
2013-03-17 05:23:00,61.0,60.0,29.92,WSW,244,0.0,0.0,97,0.00,,,0.00,,2013-03-17 10:23:00,
2013-03-17 05:33:00,61.0,60.0,29.92,WSW,244,0.0,0.0,97,0.00,,,0.00,,2013-03-17 10:33:00,
2013-03-17 05:42:00,61.0,60.0,29.92,WSW,244,0.0,0.0,97,0.00,,,0.00,,2013-03-17 10:42:00,
2013-03-17 05:52:00,61.0,60.0,29.92,WSW,244,0.0,0.0,97,0.00,,,0.00,,2013-03-17 10:52:00,
2013-03-17 06:02:00,60.0,59.0,29.92,WSW,244,0.0,0.0,98,0.00,,,0.00,,2013-03-17 11:02:00,
2013-03-17 06:12:00,60.0,59.0,29.92,WSW,244,0.0,0.0,98,0.00,,,0.00,,2013-03-17 11:12:00,
2013-03-17 06:22:00,60.0,59.0,29.92,WSW,244,0.0,0.0,98,0.00,,,0.00,,2013-03-17 11:22:00,
2013-03-17 06:32:00,61.0,60.0,29.93,WSW,244,0.0,0.0,98,0.00,,,0.00,,2013-03-17 11:32:00,
2013-03-17 06:42:00,61.0,60.0,29.93,WSW,244,0.0,0.0,98,0.00,,,0.00,,2013-03-17 11:42:00,
2013-03-17 06:52:00,61.0,60.0,29.93,WSW,244,0.0,0.0,98,0.00,,,0.00,,2013-03-17 11:52:00,
2013-03-17 07:02:00,61.0,60.0,29.93,WSW,244,0.0,0.0,98,0.00,,,0.00,,2013-03-17 12:02:00,
2013-03-17 07:12:00,61.0,60.0,29.93,WSW,244,0.0,0.0,98,0.00,,,0.00,,2013-03-17 12:12:00,
2013-03-17 07:22:00,61.0,60.0,29.93,WSW,244,0.0,0.0,98,0.00,,,0.00,,2013-03-17 12:22:00,
2013-03-17 07:32:00,60.0,59.0,29.94,WSW,244,0.0,0.0,98,0.00,,,0.00,,2013-03-17 12:32:00,
2013-03-17 07:42:00,60.0,59.0,29.94,WSW,244,0.0,0.0,98,0.00,,,0.00,,2013-03-17 12:42:00,
2013-03-17 07:52:00,60.0,59.0,29.94,WSW,244,0.0,0.0,98,0.00,,,0.00,,2013-03-17 12:52:00,
2013-03-17 08:02:00,60.0,59.0,29.94,WSW,244,0.0,0.0,98,0.00,,,0.00,,2013-03-17 13:02:00,
2013-03-17 08:12:00,60.0,59.0,29.94,WSW,244,0.0,0.0,98,0.00,,,0.00,,2013-03-17 13:12:00,
2013-03-17 08:22:00,60.0,59.0,29.94,WSW,244,0.0,0.0,98,0.00,,,0.00,,2013-03-17 13:22:00,
2013-03-17 08:32:00,61.0,60.0,29.94,WSW,244,0.0,0.0,98,0.00,,,0.00,,2013-03-17 13:32:00,
2013-03-17 08:42:00,61.0,60.0,29.94,WSW,244,0.0,0.0,98,0.00,,,0.00,,2013-03-17 13:42:00,
2013-03-17 08:52:00,61.0,60.0,29.94,WSW,244,0.0,0.0,98,0.00,,,0.00,,2013-03-17 13:52:00,
2013-03-17 09:02:00,62.0,61.0,29.96,WSW,244,0.0,0.0,98,0.00,,,0.00,,2013-03-17 14:02:00,
2013-03-17 09:12:00,62.0,61.0,29.96,WSW,244,0.0,0.0,98,0.00,,,0.00,,2013-03-17 14:12:00,
2013-03-17 09:22:00,62.0,61.0,29.96,WSW,244,0.0,0.0,97,0.00,,,0.00,,2013-03-17 14:22:00,
2013-03-17 09:32:00,63.0,62.0,29.96,SSE,156,3.0,5.0,97,0.00,,,0.00,,2013-03-17 14:32:00,
2013-03-17 09:42:00,63.0,62.0,29.96,SSE,156,3.0,5.0,97,0.00,,,0.00,,2013-03-17 14:42:00,
2013-03-17 09:52:00,63.0,62.0,29.96,SSE,156,3.0,5.0,97,0.00,,,0.00,,2013-03-17 14:52:00,
2013-03-17 10:02:00,66.0,65.0,29.95,SSE,165,5.0,8.0,96,0.00,,,0.00,,2013-03-17 15:02:00,
2013-03-17 10:12:00,66.0,65.0,29.95,SSE,165,5.0,8.0,96,0.00,,,0.00,,2013-03-17 15:12:00,
2013-03-17 10:23:00,69.0,67.0,29.95,SSW,198,2.0,10.0,92,0.00,,,0.00,,2013-03-17 15:23:00,
2013-03-17 10:33:00,71.0,67.0,29.94,South,175,3.0,7.0,86,0.00,,,0.00,,2013-03-17 15:33:00,
2013-03-17 10:42:00,71.0,67.0,29.94,South,175,3.0,7.0,86,0.00,,,0.00,,2013-03-17 15:42:00,
2013-03-17 10:52:00,72.0,67.0,29.93,SW,232,5.0,7.0,84,0.00,,,0.00,,2013-03-17 15:52:00,
2013-03-17 11:03:00,74.0,68.0,29.93,SW,222,3.0,8.0,81,0.00,,,0.00,,2013-03-17 16:03:00,
2013-03-17 11:12:00,74.0,68.0,29.93,SW,222,3.0,8.0,81,0.00,,,0.00,,2013-03-17 16:12:00,
2013-03-17 11:22:00,74.0,68.0,29.93,SW,222,3.0,8.0,81,0.00,,,0.00,,2013-03-17 16:22:00,
2013-03-17 11:33:00,75.0,67.0,29.91,SW,223,4.0,8.0,76,0.00,,,0.00,,2013-03-17 16:33:00,
2013-03-17 11:42:00,75.0,67.0,29.91,SW,223,4.0,8.0,76,0.00,,,0.00,,2013-03-17 16:42:00,
2013-03-17 11:52:00,75.0,67.0,29.91,SW,223,4.0,8.0,76,0.00,,,0.00,,2013-03-17 16:52:00,
2013-03-17 12:02:00,76.0,65.0,29.90,SW,230,7.0,10.0,70,0.00,,,0.00,,2013-03-17 17:02:00,
2013-03-17 12:12:00,76.0,65.0,29.90,SW,230,7.0,10.0,70,0.00,,,0.00,,2013-03-17 17:12:00,
2013-03-17 12:22:00,75.0,66.0,29.89,SW,216,3.0,9.0,74,0.00,,,0.00,,2013-03-17 17:22:00,
2013-03-17 12:33:00,75.0,66.0,29.89,SW,216,3.0,9.0,74,0.00,,,0.00,,2013-03-17 17:33:00,
2013-03-17 12:42:00,75.0,66.0,29.89,SW,216,3.0,9.0,74,0.00,,,0.00,,2013-03-17 17:42:00,
2013-03-17 12:52:00,74.0,65.0,29.88,SW,233,4.0,9.0,74,0.00,,,0.00,,2013-03-17 17:52:00,
2013-03-17 13:02:00,74.0,65.0,29.88,SW,222,4.0,9.0,74,0.00,,,0.00,,2013-03-17 18:02:00,
2013-03-17 13:12:00,74.0,65.0,29.88,SW,222,4.0,9.0,74,0.00,,,0.00,,2013-03-17 18:12:00,
2013-03-17 13:22:00,74.0,65.0,29.88,SW,222,4.0,9.0,74,0.00,,,0.00,,2013-03-17 18:22:00,
2013-03-17 13:32:00,74.0,65.0,29.88,SW,222,4.0,9.0,74,0.00,,,0.00,,2013-03-17 18:32:00,
2013-03-17 13:42:00,74.0,65.0,29.88,SW,222,4.0,9.0,74,0.00,,,0.00,,2013-03-17 18:42:00,
2013-03-17 13:52:00,74.0,64.0,29.86,SW,229,3.0,9.0,72,0.00,,,0.00,,2013-03-17 18:52:00,
2013-03-17 14:02:00,74.0,64.0,29.86,SW,229,3.0,9.0,72,0.00,,,0.00,,2013-03-17 19:02:00,
2013-03-17 14:12:00,74.0,64.0,29.86,SW,229,3.0,9.0,72,0.00,,,0.00,,2013-03-17 19:12:00,
2013-03-17 14:22:00,74.0,64.0,29.86,SW,229,3.0,9.0,72,0.00,,,0.00,,2013-03-17 19:22:00,
2013-03-17 14:33:00,75.0,63.0,29.85,SW,233,5.0,10.0,66,0.00,,,0.00,,2013-03-17 19:33:00,
2013-03-17 14:42:00,75.0,63.0,29.85,SW,233,5.0,10.0,66,0.00,,,0.00,,2013-03-17 19:42:00,
2013-03-17 14:53:00,76.0,64.0,29.83,WSW,238,6.0,10.0,66,0.00,,,0.00,,2013-03-17 19:53:00,
2013-03-17 15:02:00,75.0,64.0,29.83,SW,221,4.0,10.0,69,0.00,,,0.00,,2013-03-17 20:02:00,
2013-03-17 15:12:00,75.0,64.0,29.83,SW,221,4.0,10.0,69,0.00,,,0.00,,2013-03-17 20:12:00,
2013-03-17 15:22:00,75.0,64.0,29.83,SW,221,4.0,10.0,69,0.00,,,0.00,,2013-03-17 20:22:00,
2013-03-17 15:32:00,76.0,64.0,29.82,WSW,239,3.0,9.0,66,0.00,,,0.00,,2013-03-17 20:32:00,
2013-03-17 15:42:00,76.0,64.0,29.82,WSW,239,3.0,9.0,66,0.00,,,0.00,,2013-03-17 20:42:00,
2013-03-17 15:52:00,77.0,64.0,29.81,SW,217,5.0,13.0,65,0.00,,,0.00,,2013-03-17 20:52:00,
2013-03-17 16:02:00,77.0,64.0,29.80,WSW,250,6.0,9.0,65,0.00,,,0.00,,2013-03-17 21:02:00,
2013-03-17 16:12:00,77.0,64.0,29.80,WSW,250,6.0,9.0,65,0.00,,,0.00,,2013-03-17 21:12:00,
2013-03-17 16:22:00,77.0,64.0,29.80,WSW,250,6.0,9.0,65,0.00,,,0.00,,2013-03-17 21:22:00,
2013-03-17 16:33:00,76.0,65.0,29.80,SSW,210,5.0,8.0,68,0.00,,,0.00,,2013-03-17 21:33:00,
2013-03-17 16:42:00,76.0,65.0,29.80,SSW,210,5.0,8.0,68,0.00,,,0.00,,2013-03-17 21:42:00,
2013-03-17 16:52:00,77.0,65.0,29.80,SW,219,6.0,10.0,66,0.00,,,0.00,,2013-03-17 21:52:00,
2013-03-17 17:03:00,75.0,65.0,29.79,SW,227,5.0,10.0,71,0.00,,,0.00,,2013-03-17 22:03:00,
2013-03-17 17:12:00,75.0,65.0,29.79,SW,227,5.0,10.0,71,0.00,,,0.00,,2013-03-17 22:12:00,
2013-03-17 17:23:00,75.0,65.0,29.79,SW,227,5.0,10.0,71,0.00,,,0.00,,2013-03-17 22:23:00,
2013-03-17 17:33:00,76.0,66.0,29.78,WSW,238,2.0,8.0,72,0.00,,,0.00,,2013-03-17 22:33:00,
2013-03-17 17:42:00,76.0,66.0,29.78,WSW,238,2.0,8.0,72,0.00,,,0.00,,2013-03-17 22:42:00,
2013-03-17 17:52:00,76.0,66.0,29.77,SW,233,3.0,9.0,72,0.00,,,0.00,,2013-03-17 22:52:00,
2013-03-17 18:02:00,75.0,66.0,29.76,SSW,211,6.0,12.0,74,0.00,,,0.00,,2013-03-17 23:02:00,
2013-03-17 18:12:00,75.0,66.0,29.76,SSW,211,6.0,12.0,74,0.00,,,0.00,,2013-03-17 23:12:00,
2013-03-17 18:22:00,75.0,66.0,29.76,SSW,211,6.0,12.0,74,0.00,,,0.00,,2013-03-17 23:22:00,
2013-03-17 18:32:00,74.0,67.0,29.76,South,176,2.0,10.0,79,0.00,,,0.00,,2013-03-17 23:32:00,
2013-03-17 18:42:00,74.0,67.0,29.76,South,176,2.0,10.0,79,0.00,,,0.00,,2013-03-17 23:42:00,
2013-03-17 18:52:00,73.0,66.0,29.77,SW,231,2.0,7.0,80,0.00,,,0.00,,2013-03-17 23:52:00,
2013-03-17 19:03:00,73.0,67.0,29.77,SSW,193,1.0,5.0,82,0.00,,,0.00,,2013-03-18 00:03:00,
2013-03-17 19:12:00,73.0,67.0,29.77,SSW,193,1.0,5.0,82,0.00,,,0.00,,2013-03-18 00:12:00,
2013-03-17 19:22:00,72.0,67.0,29.77,SW,216,0.0,5.0,83,0.00,,,0.00,,2013-03-18 00:22:00,
2013-03-17 19:33:00,72.0,68.0,29.78,SW,221,1.0,6.0,86,0.00,,,0.00,,2013-03-18 00:33:00,
2013-03-17 19:42:00,72.0,68.0,29.78,SW,221,1.0,6.0,86,0.00,,,0.00,,2013-03-18 00:42:00,
2013-03-17 19:52:00,72.0,68.0,29.78,SW,216,1.0,5.0,86,0.00,,,0.00,,2013-03-18 00:52:00,
2013-03-17 20:01:00,71.0,67.0,29.79,SSW,199,0.0,3.0,86,0.00,,,0.00,,2013-03-18 01:01:00,
2013-03-17 20:12:00,71.0,67.0,29.79,SSW,199,0.0,3.0,86,0.00,,,0.00,,2013-03-18 01:12:00,
2013-03-17 20:22:00,71.0,67.0,29.79,SSW,199,0.0,3.0,86,0.00,,,0.00,,2013-03-18 01:22:00,
2013-03-17 20:32:00,71.0,68.0,29.79,SE,134,0.0,0.0,89,0.00,,,0.00,,2013-03-18 01:32:00,
2013-03-17 20:42:00,71.0,68.0,29.79,SE,134,0.0,0.0,89,0.00,,,0.00,,2013-03-18 01:42:00,
2013-03-17 20:52:00,70.0,67.0,29.79,SE,134,0.0,0.0,90,0.00,,,0.00,,2013-03-18 01:52:00,
2013-03-17 21:02:00,70.0,68.0,29.80,SE,134,0.0,0.0,92,0.00,,,0.00,,2013-03-18 02:02:00,
2013-03-17 21:12:00,70.0,68.0,29.80,SE,134,0.0,0.0,92,0.00,,,0.00,,2013-03-18 02:12:00,
2013-03-17 21:22:00,70.0,68.0,29.80,SE,134,0.0,0.0,92,0.00,,,0.00,,2013-03-18 02:22:00,
2013-03-17 21:32:00,70.0,68.0,29.80,SE,134,0.0,0.0,93,0.00,,,0.00,,2013-03-18 02:32:00,
2013-03-17 21:42:00,70.0,68.0,29.80,SE,134,0.0,0.0,93,0.00,,,0.00,,2013-03-18 02:42:00,
2013-03-17 21:52:00,70.0,68.0,29.80,SE,134,0.0,0.0,93,0.00,,,0.00,,2013-03-18 02:52:00,
2013-03-17 22:02:00,70.0,68.0,29.81,SE,134,0.0,0.0,94,0.00,,,0.00,,2013-03-18 03:02:00,
2013-03-17 22:11:00,70.0,68.0,29.81,SE,134,0.0,0.0,94,0.00,,,0.00,,2013-03-18 03:11:00,
2013-03-17 22:22:00,70.0,68.0,29.81,SE,134,0.0,0.0,94,0.00,,,0.00,,2013-03-18 03:22:00,
2013-03-17 22:33:00,70.0,68.0,29.81,SE,134,0.0,0.0,94,0.00,,,0.00,,2013-03-18 03:33:00,
2013-03-17 22:42:00,70.0,68.0,29.81,SE,134,0.0,0.0,94,0.00,,,0.00,,2013-03-18 03:42:00,
2013-03-17 22:52:00,70.0,68.0,29.82,SE,134,0.0,0.0,94,0.00,,,0.00,,2013-03-18 03:52:00,
2013-03-17 23:03:00,70.0,68.0,29.82,SE,134,0.0,0.0,94,0.00,,,0.00,,2013-03-18 04:03:00,
2013-03-17 23:13:00,70.0,68.0,29.82,SE,134,0.0,0.0,94,0.00,,,0.00,,2013-03-18 04:13:00,
2013-03-17 23:22:00,70.0,68.0,29.82,SE,134,0.0,0.0,94,0.00,,,0.00,,2013-03-18 04:22:00,
2013-03-17 23:33:00,70.0,68.0,29.82,SE,134,0.0,0.0,94,0.00,,,0.00,,2013-03-18 04:33:00,
2013-03-17 23:42:00,70.0,68.0,29.82,SE,134,0.0,0.0,94,0.00,,,0.00,,2013-03-18 04:42:00,
2013-03-17 23:52:00,70.0,68.0,29.82,SE,134,0.0,0.0,95,0.00,,,0.00,,2013-03-18 04:52:00,